This is the latest recevied weather packets stored in our database for station/object OK1LPD-6. If no packets are shown the sender has not sent any weather packets the latest 10 day(s).
| Time | Temp. | Humidity | Pressure | Rain* | Wind** | Luminosity | Snow |
|---|---|---|---|---|---|---|---|
| 1778249714 | 16.11° C | 56% | 1018.2 hPa | 0 mm | - | - | - |
| 1778249102 | 16.67° C | 53% | 1017.9 hPa | 0 mm | - | - | - |
| 1778248502 | 16.67° C | 52% | 1018 hPa | 0 mm | - | - | - |
| 1778247913 | 16.11° C | 55% | 1018 hPa | 0 mm | - | - | - |
| 1778247303 | 16.11° C | 56% | 1018.2 hPa | 0 mm | - | - | - |
| 1778246702 | 15.56° C | 56% | 1018.1 hPa | 0 mm | - | - | - |
| 1778246118 | 15.56° C | 56% | 1018.1 hPa | 0 mm | - | - | - |
| 1778245503 | 16.11° C | 57% | 1018.3 hPa | 0 mm | - | - | - |
| 1778244902 | 16.11° C | 58% | 1018.3 hPa | 0 mm | - | - | - |
| 1778244321 | 15.56° C | 56% | 1018.2 hPa | 0 mm | - | - | - |
| 1778243703 | 16.11° C | 55% | 1018.2 hPa | 0 mm | - | - | - |
| 1778243103 | 16.11° C | 55% | 1018.2 hPa | 0 mm | - | - | - |
| 1778242525 | 16.11° C | 56% | 1018.1 hPa | 0 mm | - | - | - |
| 1778241903 | 15.56° C | 58% | 1018 hPa | 0 mm | - | - | - |
| 1778241304 | 15.56° C | 58% | 1018.2 hPa | 0 mm | - | - | - |
| 1778240722 | 15.56° C | 57% | 1018.1 hPa | 0 mm | - | - | - |
| 1778240104 | 15.56° C | 58% | 1018.3 hPa | 0 mm | - | - | - |
| 1778239503 | 15.56° C | 56% | 1018.2 hPa | 0 mm | - | - | - |
| 1778238925 | 15.56° C | 58% | 1018.3 hPa | 0 mm | - | - | - |
| 1778238303 | 15.56° C | 60% | 1018.3 hPa | 0 mm | - | - | - |
| 1778237704 | 15.56° C | 60% | 1018.3 hPa | 0 mm | - | - | - |
| 1778237122 | 15° C | 60% | 1018.3 hPa | 0 mm | - | - | - |
| 1778236504 | 15° C | 60% | 1018.4 hPa | 0 mm | - | - | - |
| 1778235904 | 15° C | 59% | 1018.3 hPa | 0 mm | - | - | - |
| 1778235326 | 15° C | 60% | 1018.5 hPa | 0 mm | - | - | - |
* Rain latest hour (hover to see other rain measurements)
** Current wind speed in m/s (hover to see current wind gust speed)